Regional Weather Roundup
Issued by NWS Charleston, SC

Current Version | Previous Version | Graphics & Text | Print | Product List | Glossary On
Versions: 1 2 3 4 5 6 7 8 9 10 11 12 13 14 15 16 17 18 19 20 21 22 23 24 25 26 27 28 29 30 31 32 33 34 35 36 37 38 39 40 41 42 43 44 45 46 47 48 49 50
635
ASUS42 KCHS 271228
RWRCHS

REGIONAL WEATHER ROUNDUP
NATIONAL WEATHER SERVICE CHARLESTON SC
800 AM EDT FRI MAY 27 2016

NOTE: "FAIR" INDICATES FEW OR NO CLOUDS BELOW 12,000 FEET WITH NO
SIGNIFICANT WEATHER AND/OR OBSTRUCTIONS TO VISIBILITY.

NOT ALL STATIONS ARE QUALITY CONTROLLED. USE DATA WITH CAUTION...
ESPECIALLY DEWPOINT OBSERVATIONS.

SCZ027-030-031-034>040-042>050-271300-
...SOUTHEAST SOUTH CAROLINA...

CITY           SKY/WX    TMP DP  RH WIND       PRES   REMARKS
N CHARLESTON   SUNNY     73  64  73 CALM      30.14R
6HR MIN TEMP:  64; 6HR MAX TEMP:  73;

WATERFRONT PRK   N/A     72  68  87 VRB2      30.12R
MOUNT PLEASANT FAIR      70  66  88 CALM      30.15R
JOHNS ISLAND   FAIR      77  68  73 CALM      30.14S
PINOPOLIS        N/A     73  66  78 CALM      30.05F
MONCKS CORNER  FAIR      68  59  73 CALM      30.14S
SUMMERVILLE    FAIR      70  68  94 CALM      30.15S
BEAUFORT MCAS  SUNNY     74  68  81 CALM      30.13S
6HR MIN TEMP:  65; 6HR MAX TEMP:  74;

BEAUFORT ARPT  FAIR      73  64  73 E5        30.13S
HILTON HEAD IS SUNNY     68  66  94 CALM      30.14R
WALTERBORO     SUNNY     72  68  88 E7        30.14S
ALLENDALE      FAIR      70  64  83 CALM      30.13S

...SOUTHERN MIDLANDS AND PEE DEE...

CITY           SKY/WX    TMP DP  RH WIND       PRES   REMARKS
GEORGETOWN     FAIR      70  64  83 CALM      30.16S
KINGSTREE      FAIR      70  63  78 CALM      30.15R
ORANGEBURG     SUNNY     70  63  78 CALM      30.15R
6HR MIN TEMP:  63; 6HR MAX TEMP:  70;

BARNWELL       PTSUNNY   72  70  94 CALM      30.15S
AIKEN          FAIR      70  61  73 CALM      30.18R
MANNING        FAIR      68  63  83 CALM      30.16R
COLUMBIA       CLOUDY    69  62  78 CALM      30.15R
6HR MIN TEMP:  66; 6HR MAX TEMP:  72;

SUMTER         SUNNY     68  63  83 E2        30.14R
6HR MIN TEMP:  62; 6HR MAX TEMP:  69;

FLORENCE       CLOUDY    70  64  81 CALM      30.16R
6HR MIN TEMP:  63; 6HR MAX TEMP:  70;

MYRTLE BEACH   SUNNY     72  61  68 CALM      30.17R
N MYRTLE BEACH SUNNY     72  66  81 CALM      30.15S
6HR MIN TEMP:  63; 6HR MAX TEMP:  74;


$$

GAZ063-065-086>088-099>101-113>116-118-119-134>141-150-271300-
...SOUTHEAST GEORGIA...

CITY           SKY/WX    TMP DP  RH WIND       PRES   REMARKS
SAVANNAH ARPT  MOSUNNY   71  63  75 E8        30.12S
6HR MIN TEMP:  63; 6HR MAX TEMP:  71;

HUNTER AAF     SUNNY     71  66  83 E3        30.10R
6HR MIN TEMP:  64; 6HR MAX TEMP:  71;

FORT STEWART   SUNNY     67  62  84 CALM      30.10R
6HR MIN TEMP:  60; 6HR MAX TEMP:  67;

STATESBORO     SUNNY     71  66  85 SE3       30.12F
SYLVANIA       SUNNY     71  66  84 CALM      30.14S
CLAXTON        FAIR      68  65  89 CALM      30.13S

...CSRA...CENTRAL AND FAR SOUTHEAST GEORGIA...

CITY           SKY/WX    TMP DP  RH WIND       PRES   REMARKS
THOMSON        PTSUNNY   71  65  81 CALM      30.19R
AUGUSTA-BUSH   MOSUNNY   66  63  90 CALM      30.13S
6HR MIN TEMP:  60; 6HR MAX TEMP:  68;

AUGUSTA-DANIEL PTSUNNY   70  61  73 SE5       30.14S
SWAINSBORO     FAIR      70  63  78 SE3       30.14R
VIDALIA        SUNNY     72  63  73 E5        30.13R
EASTMAN        FAIR      70  64  79 SE3       30.15R
HAZLEHURST     FAIR      73  63  71 CALM      30.12R
ALMA           SUNNY     66  63  90 CALM      30.11S
6HR MIN TEMP:  59; 6HR MAX TEMP:  67;

WAYCROSS       SUNNY     67  63  86 E3        30.11S
JESUP          FAIR      64  61  88 CALM      30.12S
BAXLEY         FAIR      70  64  83 E5        30.11S
BRUNSWICK      PTSUNNY   68  63  83 CALM      30.11S
SAINT SIMONS   PTSUNNY   73  64  73 N3        30.10R
6HR MIN TEMP:  65; 6HR MAX TEMP:  75;


$$

SCZ027-028-034-036>038-045-046-048>050-GAZ119-141-271300-
...LAKE AND SUPPLEMENTAL COASTAL OBSERVATIONS...

STATION/POSITION TIME  TEMP    WIND        PRES    WAVE   SWELL
                       AIR SEA DIR/SP/G            HT/PER HT/PER/DIR
                 (UTC) (F)     (DEG/KT/KT) (MB)    (FT/S) (FT/S/D)
WINYAH BAY       1100   64     330/  2     1020.0
LAKE MURRAY      1100   70     190/  3/  4 1020.3R
ACE BASIN NERRS  1100   66        CALM     1020.0S
FORT PULASKI     1200   76 76   50/  7/  9 1020.4R
SAPELO ISLAND    1200   74     360/  1     1020.0R

$$

ANZ835-935-AMZ111-154-330-350-352-354-370-450-454-472-271300-
...C-MAN AND BUOY OBSERVATIONS...

STATION/POSITION TIME  TEMP    WIND        PRES    WAVE   SWELL
                       AIR SEA DIR/SP/G            HT/PER HT/PER/DIR
                 (UTC) (F)     (DEG/KT/KT) (MB)    (FT/S) (FT/S/D)
BUOY 41004       1150   76 76   20/ 10/ 12 1019.9S   3/ 7   2/ 7
BUOY 41008       1150   76 76   50/ 10/ 12 1019.6R   3/ 5   2/130/ 5
FOLLY BEACH CMAN 1200   76      90/  5/  5 1020.8R
CAPERS NEARSHORE 1208   77 76  100/  4/  8 1020.6R
FRIPP NEARSHORE  1208   77 76   70/  8/ 10 1020.0R


STATION/POSITION TIME  TEMP    WIND        PRES    WAVE   SWELL
                       AIR SEA DIR/SP/G            HT/PER HT/PER/DIR
                 (UTC) (F)     (DEG/KT/KT) (MB)    (FT/S) (FT/S/D)
5E ST. MARYS GA  1201      77                N/A     3/ 6
FRYING PAN BUOY  1200   76 75   50/  6/  8 1020.6S
BUOY 41025       1150   78 82  170/  2/  4 1022.0S   2/ 8   2/100/ 8
CAPE LOOKOUT NC  1200   73     100/  3/  3 1021.7R
BUOY 41002       1150   73 77   50/ 14/ 17 1019.2R   3/ 8   2/110/ 8
BUOY 41010       1120   76 78   60/ 12/ 14 1016.7R
ST AUGUSTINE FL  1200   77 78   70/ 10/ 11 1019.0R


$$




USA.gov is the U.S. government's official web portal to all federal, state and local government web resources and services.